Location: CCZU
(31.6840°N, 119.9550°E)
Time: 16:50:36
(UTC+08:00)

Tiangong - Visible Passes

Search period start: 16 September 2024 00:00
Search period end: 26 September 2024 00:00
Orbit: 374 x 377 km, 41.5° (Epoch: 15 September)

Date Brightness Start Highest point End Pass type
(mag) Time Alt. Az. Time Alt. Az. Time Alt. Az.
16 Sep -2.3 19:19:10 10° SW 19:22:13 61° SSE 19:22:28 58° ESE visible
17 Sep -0.2 19:53:24 10° W 19:55:27 29° WNW 19:55:27 29° WNW visible
18 Sep -2.0 18:50:31 10° WSW 18:53:37 71° NNW 18:56:10 14° NE visible
19 Sep -0.3 19:25:02 10° WNW 19:27:41 25° NNW 19:28:42 21° NNE visible
20 Sep -1.0 18:21:50 10° W 18:24:47 41° NNW 18:27:45 10° NE visible
20 Sep 0.8 20:00:01 10° NW 20:01:03 14° NNW 20:01:03 14° NNW visible
21 Sep 0.2 18:56:31 10° WNW 18:58:49 19° NNW 19:01:08 10° NE visible
22 Sep 0.4 19:31:20 10° NW 19:33:00 14° N 19:33:17 13° N visible
23 Sep 0.3 18:27:46 10° NW 18:29:45 16° N 18:31:44 10° NNE visible
24 Sep 0.4 19:02:12 10° NNW 19:03:49 13° N 19:05:05 11° NNE visible
25 Sep 0.4 19:35:38 10° NNW 19:36:53 15° N 19:36:53 15° N visible
